| time (UTC) | temp F | wind direction | speed MPH | gust MPH | rain 1hr in | rain 24hr in | rain mn in | humidity % | barometer mb |
| 20260905230546 | 63 | 311 | 6.0 | 12.0 | 0.00 | 0.00 | 0.00 | 59 | 1015.4 |
| 20260905230058 | 63 | 296 | 7.0 | 12.0 | 0.00 | 0.00 | 0.00 | 59 | 1015.4 |
| 20260905225542 | 64 | 299 | 8.0 | 11.0 | 0.00 | 0.00 | 0.00 | 59 | 1015.4 |
| 20260905225043 | 64 | 288 | 7.0 | 11.0 | 0.00 | 0.00 | 0.00 | 60 | 1015.6 |
| 20260905224600 | 64 | 314 | 7.0 | 11.0 | 0.00 | 0.00 | 0.00 | 58 | 1015.4 |
| 20260905224042 | 65 | 303 | 7.0 | 11.0 | 0.00 | 0.00 | 0.00 | 58 | 1015.4 |
| 20260905223542 | 65 | 311 | 7.0 | 11.0 | 0.00 | 0.00 | 0.00 | 57 | 1015.5 |
| 20260905223057 | 66 | 300 | 7.0 | 13.0 | 0.00 | 0.00 | 0.00 | 56 | 1015.4 |
| 20260905222544 | 66 | 338 | 8.0 | 13.0 | 0.00 | 0.00 | 0.00 | 55 | 1015.5 |
| 20260905222043 | 66 | 311 | 7.0 | 12.0 | 0.00 | 0.00 | 0.00 | 55 | 1015.4 |
| 20260905221605 | 66 | 309 | 5.0 | 10.0 | 0.00 | 0.00 | 0.00 | 56 | 1015.4 |
| 20260905221045 | 66 | 317 | 6.0 | 9.0 | 0.00 | 0.00 | 0.00 | 57 | 1015.4 |
| 20260905220544 | 67 | 311 | 5.0 | 10.0 | 0.00 | 0.00 | 0.00 | 57 | 1015.4 |
| 20260905220106 | 67 | 300 | 5.0 | 10.0 | 0.00 | 0.00 | 0.00 | 58 | 1015.4 |
| 20260905215543 | 67 | 315 | 5.0 | 10.0 | 0.00 | 0.00 | 0.00 | 58 | 1015.5 |
| 20260905215047 | 67 | 313 | 6.0 | 11.0 | 0.00 | 0.00 | 0.00 | 57 | 1015.6 |
| 20260905214557 | 68 | 304 | 7.0 | 11.0 | 0.00 | 0.00 | 0.00 | 56 | 1015.5 |
| 20260905214042 | 68 | 319 | 6.0 | 10.0 | 0.00 | 0.00 | 0.00 | 54 | 1015.5 |
| 20260905213546 | 69 | 313 | 6.0 | 10.0 | 0.00 | 0.00 | 0.00 | 53 | 1015.5 |
| 20260905213058 | 69 | 323 | 5.0 | 10.0 | 0.00 | 0.00 | 0.00 | 52 | 1015.5 |
| 20260905212543 | 69 | 303 | 3.0 | 7.0 | 0.00 | 0.00 | 0.00 | 52 | 1015.6 |
| 20260905212043 | 69 | 308 | 3.0 | 8.0 | 0.00 | 0.00 | 0.00 | 51 | 1015.5 |
| 20260905211551 | 69 | 290 | 4.0 | 8.0 | 0.00 | 0.00 | 0.00 | 50 | 1015.6 |
| 20260905211043 | 69 | 311 | 4.0 | 7.0 | 0.00 | 0.00 | 0.00 | 52 | 1015.5 |
| 20260905210546 | 69 | 319 | 3.0 | 8.0 | 0.00 | 0.00 | 0.00 | 51 | 1015.6 |
| 20260905210103 | 69 | 294 | 4.0 | 8.0 | 0.00 | 0.00 | 0.00 | 49 | 1015.6 |
| 20260905205544 | 70 | 292 | 3.0 | 8.0 | 0.00 | 0.00 | 0.00 | 49 | 1015.6 |
| 20260905205044 | 70 | 312 | 3.0 | 8.0 | 0.00 | 0.00 | 0.00 | 47 | 1015.6 |
| 20260905204602 | 70 | 311 | 3.0 | 9.0 | 0.00 | 0.00 | 0.00 | 48 | 1015.6 |
| 20260905204045 | 70 | 319 | 4.0 | 9.0 | 0.00 | 0.00 | 0.00 | 47 | 1015.6 |
| 20260905203542 | 70 | 291 | 4.0 | 9.0 | 0.00 | 0.00 | 0.00 | 48 | 1015.6 |
| 20260905203057 | 70 | 323 | 3.0 | 8.0 | 0.00 | 0.00 | 0.00 | 48 | 1015.6 |
| 20260905202544 | 69 | 328 | 4.0 | 8.0 | 0.00 | 0.00 | 0.00 | 47 | 1015.6 |
| 20260905202043 | 69 | 298 | 3.0 | 7.0 | 0.00 | 0.00 | 0.00 | 50 | 1015.6 |
| 20260905201553 | 69 | 320 | 3.0 | 8.0 | 0.00 | 0.00 | 0.00 | 51 | 1015.6 |
| 20260905201044 | 69 | 309 | 4.0 | 8.0 | 0.00 | 0.00 | 0.00 | 50 | 1015.7 |
| 20260905200543 | 69 | 297 | 2.0 | 7.0 | 0.00 | 0.00 | 0.00 | 50 | 1015.7 |
| 20260905200104 | 69 | 311 | 3.0 | 7.0 | 0.00 | 0.00 | 0.00 | 51 | 1015.7 |
| 20260905195542 | 69 | 304 | 3.0 | 7.0 | 0.00 | 0.00 | 0.00 | 51 | 1015.8 |
| 20260905195043 | 70 | 315 | 4.0 | 7.0 | 0.00 | 0.00 | 0.00 | 49 | 1015.9 |
| 20260905194557 | 70 | 317 | 3.0 | 7.0 | 0.00 | 0.00 | 0.00 | 51 | 1015.8 |
| 20260905194044 | 69 | 317 | 2.0 | 8.0 | 0.00 | 0.00 | 0.00 | 51 | 1016.0 |
| 20260905193543 | 69 | 300 | 2.0 | 8.0 | 0.00 | 0.00 | 0.00 | 51 | 1016.0 |
| 20260905193107 | 69 | 334 | 2.0 | 8.0 | 0.00 | 0.00 | 0.00 | 51 | 1016.1 |
| 20260905192543 | 69 | 331 | 2.0 | 5.0 | 0.00 | 0.00 | 0.00 | 49 | 1016.1 |
| 20260905192044 | 69 | 310 | 1.0 | 6.0 | 0.00 | 0.00 | 0.00 | 50 | 1016.1 |
| 20260905191558 | 68 | 302 | 1.0 | 7.0 | 0.00 | 0.00 | 0.00 | 51 | 1016.2 |
| 20260905191045 | 68 | 221 | 2.0 | 7.0 | 0.00 | 0.00 | 0.00 | 50 | 1016.2 |
| 20260905190542 | 68 | 314 | 1.0 | 7.0 | 0.00 | 0.00 | 0.00 | 50 | 1016.2 |
| 20260905190103 | 68 | 313 | 3.0 | 7.0 | 0.00 | 0.00 | 0.00 | 49 | 1016.2 |
| 20260905185544 | 68 | 320 | 2.0 | 5.0 | 0.00 | 0.00 | 0.00 | 49 | 1016.3 |
| 20260905185046 | 68 | 319 | 2.0 | 5.0 | 0.00 | 0.00 | 0.00 | 49 | 1016.2 |
| 20260905184558 | 68 | 319 | 2.0 | 5.0 | 0.00 | 0.00 | 0.00 | 47 | 1016.3 |
| 20260905184044 | 68 | 349 | 1.0 | 5.0 | 0.00 | 0.00 | 0.00 | 47 | 1016.1 |
| 20260905183546 | 68 | 326 | 2.0 | 4.0 | 0.00 | 0.00 | 0.00 | 45 | 1016.2 |
| 20260905183059 | 68 | 294 | 1.0 | 4.0 | 0.00 | 0.00 | 0.00 | 43 | 1016.1 |
| 20260905182544 | 67 | 232 | 1.0 | 4.0 | 0.00 | 0.00 | 0.00 | 43 | 1016.1 |
| 20260905182045 | 67 | 300 | 2.0 | 4.0 | 0.00 | 0.00 | 0.00 | 44 | 1016.0 |
| 20260905181605 | 66 | 318 | 1.0 | 4.0 | 0.00 | 0.00 | 0.00 | 45 | 1016.1 |
| 20260905181045 | 66 | 0 | 2.0 | 4.0 | 0.00 | 0.00 | 0.00 | 47 | 1016.0 |
| 20260905180545 | 66 | 342 | 1.0 | 4.0 | 0.00 | 0.00 | 0.00 | 49 | 1016.0 |
| 20260905180051 | 66 | 311 | 1.0 | 4.0 | 0.00 | 0.00 | 0.00 | 48 | 1016.0 |
| 20260905175545 | 65 | 309 | 1.0 | 4.0 | 0.00 | 0.00 | 0.00 | 50 | 1016.0 |
| 20260905175045 | 65 | 285 | 1.0 | 4.0 | 0.00 | 0.00 | 0.00 | 51 | 1015.9 |
| 20260905174557 | 65 | 238 | 1.0 | 3.0 | 0.00 | 0.00 | 0.00 | 49 | 1015.9 |
| 20260905174046 | 65 | 271 | 1.0 | 3.0 | 0.00 | 0.00 | 0.00 | 49 | 1015.9 |
| 20260905173545 | 65 | 142 | 1.0 | 2.0 | 0.00 | 0.00 | 0.00 | 49 | 1015.9 |
| 20260905173052 | 64 | 0 | 0.0 | 2.0 | 0.00 | 0.00 | 0.00 | 49 | 1015.8 |
| 20260905172545 | 64 | 0 | 0.0 | 2.0 | 0.00 | 0.00 | 0.00 | 51 | 1015.8 |
| 20260905172045 | 64 | 0 | 0.0 | 2.0 | 0.00 | 0.00 | 0.00 | 51 | 1015.7 |
| 20260905171603 | 64 | 142 | 1.0 | 2.0 | 0.00 | 0.00 | 0.00 | 51 | 1015.7 |
| 20260905171045 | 63 | 142 | 0.0 | 5.0 | 0.00 | 0.00 | 0.00 | 51 | 1015.7 |
| 20260905170545 | 63 | 0 | 1.0 | 5.0 | 0.00 | 0.00 | 0.00 | 51 | 1015.6 |
| 20260905170107 | 63 | 125 | 2.0 | 5.0 | 0.00 | 0.00 | 0.00 | 46 | 1015.6 |
| 20260905165547 | 62 | 150 | 1.0 | 5.0 | 0.00 | 0.00 | 0.00 | 54 | 1015.6 |
| 20260905165044 | 62 | 147 | 2.0 | 5.0 | 0.00 | 0.00 | 0.00 | 54 | 1015.4 |
| 20260905164559 | 61 | 153 | 3.0 | 5.0 | 0.00 | 0.00 | 0.00 | 56 | 1015.5 |
| 20260905164045 | 61 | 154 | 1.0 | 4.0 | 0.00 | 0.00 | 0.00 | 55 | 1015.4 |
| 20260905163544 | 60 | 0 | 0.0 | 3.0 | 0.00 | 0.00 | 0.00 | 52 | 1015.5 |
| 20260905163052 | 60 | 0 | 0.0 | 3.0 | 0.00 | 0.00 | 0.00 | 53 | 1015.4 |
| 20260905162547 | 60 | 333 | 1.0 | 3.0 | 0.00 | 0.00 | 0.00 | 53 | 1015.5 |
| 20260905162045 | 60 | 333 | 1.0 | 2.0 | 0.00 | 0.00 | 0.00 | 53 | 1015.5 |
| 20260905161550 | 60 | 160 | 1.0 | 2.0 | 0.00 | 0.00 | 0.00 | 52 | 1015.6 |
| 20260905161045 | 61 | 160 | 1.0 | 2.0 | 0.00 | 0.00 | 0.00 | 51 | 1015.6 |
| 20260905160545 | 61 | 160 | 1.0 | 2.0 | 0.00 | 0.00 | 0.00 | 47 | 1015.4 |
| 20260905160101 | 61 | 160 | 0.0 | 3.0 | 0.00 | 0.00 | 0.00 | 47 | 1015.5 |
| 20260905155545 | 61 | 0 | 0.0 | 4.0 | 0.00 | 0.00 | 0.00 | 46 | 1015.4 |
| 20260905155046 | 61 | 160 | 1.0 | 4.0 | 0.00 | 0.00 | 0.00 | 44 | 1015.4 |
| 20260905154600 | 61 | 160 | 1.0 | 4.0 | 0.00 | 0.00 | 0.00 | 44 | 1015.3 |
| 20260905154045 | 61 | 160 | 2.0 | 5.0 | 0.00 | 0.00 | 0.00 | 43 | 1015.3 |
| 20260905153548 | 61 | 167 | 2.0 | 5.0 | 0.00 | 0.00 | 0.00 | 44 | 1015.2 |
| 20260905153053 | 60 | 158 | 1.0 | 5.0 | 0.00 | 0.00 | 0.00 | 44 | 1015.3 |
| 20260905152545 | 60 | 158 | 2.0 | 5.0 | 0.00 | 0.00 | 0.00 | 45 | 1015.2 |
| 20260905152046 | 60 | 161 | 3.0 | 5.0 | 0.00 | 0.00 | 0.00 | 45 | 1015.2 |
| 20260905151603 | 60 | 161 | 0.0 | 2.0 | 0.00 | 0.00 | 0.00 | 47 | 1015.0 |
| 20260905151045 | 59 | 161 | 1.0 | 2.0 | 0.00 | 0.00 | 0.00 | 47 | 1015.1 |
| 20260905150544 | 59 | 161 | 1.0 | 4.0 | 0.00 | 0.00 | 0.00 | 50 | 1015.1 |
| 20260905150100 | 59 | 161 | 1.0 | 4.0 | 0.00 | 0.00 | 0.00 | 50 | 1015.1 |
| 20260905145545 | 59 | 161 | 1.0 | 4.0 | 0.00 | 0.00 | 0.00 | 50 | 1015.1 |
| 20260905145044 | 59 | 161 | 1.0 | 4.0 | 0.00 | 0.00 | 0.00 | 50 | 1015.0 |
| 20260905144554 | 58 | 161 | 0.0 | 4.0 | 0.00 | 0.00 | 0.00 | 51 | 1015.0 |
| 20260905144049 | 58 | 161 | 2.0 | 4.0 | 0.00 | 0.00 | 0.00 | 50 | 1015.0 |
| 20260905143545 | 58 | 162 | 0.0 | 0.0 | 0.00 | 0.00 | 0.00 | 48 | 1015.0 |
| 20260905143056 | 57 | 0 | 0.0 | 0.0 | 0.00 | 0.00 | 0.00 | 50 | 1015.0 |
| 20260905142545 | 57 | 0 | 0.0 | 0.0 | 0.00 | 0.00 | 0.00 | 52 | 1015.1 |
| 20260905142045 | 57 | 0 | 0.0 | 0.0 | 0.00 | 0.00 | 0.00 | 51 | 1015.0 |
| 20260905141602 | 57 | 0 | 0.0 | 0.0 | 0.00 | 0.00 | 0.00 | 52 | 1015.0 |
| 20260905141048 | 57 | 0 | 0.0 | 0.0 | 0.00 | 0.00 | 0.00 | 54 | 1015.0 |
| 20260905140545 | 57 | 0 | 0.0 | 0.0 | 0.00 | 0.00 | 0.00 | 54 | 1014.9 |
| 20260905140058 | 56 | 0 | 0.0 | 0.0 | 0.00 | 0.00 | 0.00 | 54 | 1014.9 |
| 20260905135546 | 56 | 0 | 0.0 | 0.0 | 0.00 | 0.00 | 0.00 | 54 | 1014.8 |
| 20260905135049 | 56 | 0 | 0.0 | 0.0 | 0.00 | 0.00 | 0.00 | 54 | 1014.8 |
| 20260905134558 | 56 | 0 | 0.0 | 0.0 | 0.00 | 0.00 | 0.00 | 54 | 1014.7 |
| 20260905134045 | 56 | 0 | 0.0 | 0.0 | 0.00 | 0.00 | 0.00 | 56 | 1014.7 |
| 20260905133545 | 55 | 0 | 0.0 | 0.0 | 0.00 | 0.00 | 0.00 | 57 | 1014.7 |
| 20260905133052 | 55 | 0 | 0.0 | 0.0 | 0.00 | 0.00 | 0.00 | 57 | 1014.7 |
| 20260905132548 | 55 | 0 | 0.0 | 0.0 | 0.00 | 0.00 | 0.00 | 57 | 1014.6 |
| 20260905132046 | 55 | 0 | 0.0 | 0.0 | 0.00 | 0.00 | 0.00 | 57 | 1014.7 |
| 20260905131605 | 55 | 0 | 0.0 | 0.0 | 0.00 | 0.00 | 0.00 | 57 | 1014.6 |
| 20260905131045 | 55 | 0 | 0.0 | 0.0 | 0.00 | 0.00 | 0.00 | 58 | 1014.7 |
| 20260905130545 | 55 | 0 | 0.0 | 0.0 | 0.00 | 0.00 | 0.00 | 58 | 1014.7 |
| 20260905130059 | 55 | 0 | 0.0 | 0.0 | 0.00 | 0.00 | 0.00 | 58 | 1014.7 |
| 20260905125544 | 55 | 0 | 0.0 | 0.0 | 0.00 | 0.00 | 0.00 | 60 | 1014.7 |
| 20260905125044 | 56 | 0 | 0.0 | 0.0 | 0.00 | 0.00 | 0.00 | 58 | 1014.7 |
| 20260905124555 | 56 | 0 | 0.0 | 0.0 | 0.00 | 0.00 | 0.00 | 60 | 1014.8 |
| 20260905124044 | 56 | 0 | 0.0 | 0.0 | 0.00 | 0.00 | 0.00 | 58 | 1014.7 |
| 20260905123545 | 56 | 0 | 0.0 | 0.0 | 0.00 | 0.00 | 0.00 | 58 | 1014.9 |
| 20260905123108 | 56 | 0 | 0.0 | 2.0 | 0.00 | 0.00 | 0.00 | 58 | 1014.8 |
| 20260905122545 | 56 | 0 | 0.0 | 2.0 | 0.00 | 0.00 | 0.00 | 58 | 1014.8 |
| 20260905122047 | 56 | 0 | 0.0 | 2.0 | 0.00 | 0.00 | 0.00 | 58 | 1014.8 |
| 20260905121559 | 56 | 0 | 0.0 | 3.0 | 0.00 | 0.00 | 0.00 | 58 | 1014.7 |
| 20260905121045 | 56 | 328 | 1.0 | 3.0 | 0.00 | 0.00 | 0.00 | 58 | 1014.7 |
| 20260905120549 | 56 | 328 | 1.0 | 3.0 | 0.00 | 0.00 | 0.00 | 59 | 1014.7 |
| 20260905115544 | 56 | 328 | 1.0 | 3.0 | 0.00 | 0.01 | 0.00 | 57 | 1014.7 |
| 20260905115044 | 57 | 328 | 1.0 | 4.0 | 0.00 | 0.01 | 0.00 | 56 | 1014.6 |
| 20260905114555 | 57 | 328 | 2.0 | 5.0 | 0.00 | 0.01 | 0.00 | 55 | 1014.6 |
| 20260905114044 | 57 | 328 | 2.0 | 5.0 | 0.00 | 0.01 | 0.00 | 54 | 1014.5 |
| 20260905113544 | 57 | 328 | 2.0 | 5.0 | 0.00 | 0.01 | 0.00 | 53 | 1014.5 |
| 20260905113100 | 57 | 328 | 3.0 | 5.0 | 0.00 | 0.01 | 0.00 | 52 | 1014.4 |
| 20260905112545 | 57 | 317 | 3.0 | 5.0 | 0.00 | 0.01 | 0.00 | 51 | 1014.5 |
| 20260905112044 | 57 | 315 | 3.0 | 6.0 | 0.00 | 0.01 | 0.00 | 51 | 1014.5 |
| 20260905111645 | 57 | 316 | 3.0 | 7.0 | 0.00 | 0.01 | 0.00 | 51 | 1014.4 |
| 20260905111045 | 57 | 330 | 4.0 | 7.0 | 0.00 | 0.01 | 0.00 | 51 | 1014.5 |
| 20260905110545 | 57 | 313 | 4.0 | 6.0 | 0.00 | 0.01 | 0.00 | 53 | 1014.5 |
| 20260905110055 | 56 | 319 | 3.0 | 6.0 | 0.00 | 0.01 | 0.00 | 54 | 1014.5 |
| 20260905105545 | 56 | 320 | 4.0 | 8.0 | 0.00 | 0.01 | 0.00 | 55 | 1014.6 |
| 20260905105045 | 56 | 319 | 3.0 | 10.0 | 0.00 | 0.01 | 0.00 | 57 | 1014.5 |
| 20260905104601 | 56 | 305 | 4.0 | 10.0 | 0.00 | 0.01 | 0.00 | 58 | 1014.4 |
| 20260905104045 | 55 | 313 | 7.0 | 10.0 | 0.00 | 0.01 | 0.00 | 59 | 1014.5 |
| 20260905103547 | 54 | 317 | 7.0 | 9.0 | 0.00 | 0.01 | 0.00 | 61 | 1014.4 |
| 20260905103102 | 54 | 319 | 6.0 | 10.0 | 0.00 | 0.01 | 0.00 | 63 | 1014.5 |
| 20260905102544 | 53 | 322 | 6.0 | 10.0 | 0.00 | 0.01 | 0.00 | 66 | 1014.6 |
| 20260905102045 | 52 | 323 | 6.0 | 10.0 | 0.00 | 0.01 | 0.00 | 68 | 1014.6 |
| 20260905101559 | 52 | 320 | 6.0 | 9.0 | 0.00 | 0.01 | 0.00 | 72 | 1014.6 |
| 20260905101045 | 53 | 301 | 5.0 | 8.0 | 0.00 | 0.01 | 0.00 | 72 | 1014.6 |
| 20260905100544 | 53 | 317 | 5.0 | 8.0 | 0.00 | 0.01 | 0.00 | 70 | 1014.7 |
| 20260905100218 | 53 | 313 | 5.0 | 8.0 | 0.00 | 0.01 | 0.00 | 68 | 1014.7 |
| 20260905095543 | 54 | 323 | 5.0 | 9.0 | 0.00 | 0.01 | 0.00 | 67 | 1014.6 |
| 20260905095043 | 54 | 319 | 4.0 | 9.0 | 0.00 | 0.01 | 0.00 | 66 | 1014.7 |
| 20260905094558 | 54 | 303 | 5.0 | 8.0 | 0.00 | 0.01 | 0.00 | 63 | 1014.8 |
| 20260905094043 | 55 | 317 | 5.0 | 8.0 | 0.00 | 0.01 | 0.00 | 61 | 1014.7 |
| 20260905093547 | 55 | 317 | 5.0 | 9.0 | 0.00 | 0.01 | 0.00 | 60 | 1014.7 |
| 20260905093056 | 55 | 320 | 5.0 | 9.0 | 0.00 | 0.01 | 0.00 | 60 | 1014.9 |
| 20260905092546 | 55 | 311 | 6.0 | 10.0 | 0.00 | 0.01 | 0.00 | 59 | 1014.8 |
| 20260905092043 | 55 | 319 | 7.0 | 10.0 | 0.00 | 0.01 | 0.00 | 60 | 1014.9 |
| 20260905091604 | 55 | 313 | 7.0 | 10.0 | 0.00 | 0.01 | 0.00 | 60 | 1014.9 |
| 20260905091044 | 55 | 324 | 8.0 | 10.0 | 0.00 | 0.01 | 0.00 | 61 | 1015.0 |
| 20260905090544 | 55 | 321 | 8.0 | 10.0 | 0.00 | 0.01 | 0.00 | 60 | 1015.0 |
| 20260905090056 | 55 | 318 | 7.0 | 10.0 | 0.00 | 0.01 | 0.00 | 59 | 1015.0 |
| 20260905085545 | 55 | 304 | 7.0 | 10.0 | 0.00 | 0.01 | 0.00 | 60 | 1015.1 |
| 20260905085045 | 55 | 311 | 6.0 | 10.0 | 0.00 | 0.01 | 0.00 | 59 | 1015.2 |
| 20260905084553 | 55 | 306 | 6.0 | 10.0 | 0.00 | 0.01 | 0.00 | 58 | 1015.2 |
| 20260905084041 | 55 | 315 | 6.0 | 8.0 | 0.00 | 0.01 | 0.00 | 59 | 1015.1 |
| 20260905083543 | 55 | 314 | 4.0 | 8.0 | 0.00 | 0.01 | 0.00 | 60 | 1015.2 |
| 20260905083050 | 54 | 302 | 4.0 | 8.0 | 0.00 | 0.01 | 0.00 | 60 | 1015.3 |
| 20260905082543 | 54 | 315 | 5.0 | 8.0 | 0.00 | 0.01 | 0.00 | 60 | 1015.1 |
| 20260905082044 | 53 | 323 | 5.0 | 8.0 | 0.00 | 0.01 | 0.00 | 63 | 1015.2 |
| 20260905081604 | 53 | 327 | 3.0 | 6.0 | 0.00 | 0.01 | 0.00 | 65 | 1015.2 |
| 20260905081043 | 53 | 316 | 3.0 | 5.0 | 0.00 | 0.01 | 0.00 | 66 | 1015.2 |
| 20260905080543 | 53 | 327 | 2.0 | 5.0 | 0.00 | 0.01 | 0.00 | 67 | 1015.1 |
| 20260905075547 | 55 | 319 | 3.0 | 7.0 | 0.00 | 0.01 | 0.00 | 64 | 1015.2 |
| 20260905075041 | 55 | 319 | 4.0 | 8.0 | 0.00 | 0.01 | 0.00 | 61 | 1015.2 |
| 20260905074551 | 55 | 312 | 4.0 | 8.0 | 0.00 | 0.01 | 0.00 | 58 | 1015.3 |
| 20260905074043 | 55 | 310 | 5.0 | 8.0 | 0.00 | 0.01 | 0.00 | 58 | 1015.2 |
| 20260905073543 | 56 | 301 | 4.0 | 7.0 | 0.00 | 0.01 | 0.00 | 58 | 1015.2 |
| 20260905073100 | 56 | 317 | 4.0 | 6.0 | 0.00 | 0.01 | 0.00 | 57 | 1015.2 |
| 20260905072541 | 56 | 315 | 4.0 | 6.0 | 0.00 | 0.01 | 0.00 | 57 | 1015.2 |
| 20260905072043 | 55 | 315 | 3.0 | 8.0 | 0.00 | 0.01 | 0.00 | 57 | 1015.3 |
| 20260905071559 | 55 | 321 | 4.0 | 8.0 | 0.00 | 0.01 | 0.00 | 57 | 1015.2 |
| 20260905071043 | 55 | 318 | 4.0 | 8.0 | 0.00 | 0.01 | 0.00 | 58 | 1015.2 |
| 20260905070543 | 55 | 317 | 5.0 | 8.0 | 0.00 | 0.01 | 0.00 | 59 | 1015.3 |
| 20260905070100 | 55 | 313 | 5.0 | 8.0 | 0.00 | 0.01 | 0.00 | 60 | 1015.2 |
| 20260905065543 | 55 | 313 | 5.0 | 8.0 | 0.00 | 0.05 | 0.01 | 61 | 1015.1 |
| 20260905065040 | 56 | 319 | 4.0 | 8.0 | 0.00 | 0.05 | 0.01 | 58 | 1015.1 |
| 20260905064601 | 56 | 312 | 5.0 | 10.0 | 0.00 | 0.05 | 0.01 | 58 | 1015.2 |
| 20260905064040 | 55 | 315 | 6.0 | 10.0 | 0.00 | 0.05 | 0.01 | 58 | 1015.2 |
| 20260905063543 | 55 | 321 | 6.0 | 10.0 | 0.00 | 0.05 | 0.01 | 58 | 1015.1 |
| 20260905063103 | 55 | 316 | 5.0 | 9.0 | 0.00 | 0.05 | 0.01 | 60 | 1015.1 |
| 20260905062544 | 55 | 323 | 4.0 | 8.0 | 0.00 | 0.05 | 0.01 | 61 | 1015.2 |
| 20260905062044 | 55 | 321 | 5.0 | 8.0 | 0.00 | 0.05 | 0.01 | 61 | 1015.2 |
| 20260905061609 | 55 | 319 | 4.0 | 9.0 | 0.00 | 0.05 | 0.01 | 61 | 1015.3 |
| 20260905061043 | 55 | 313 | 4.0 | 10.0 | 0.00 | 0.05 | 0.01 | 61 | 1015.2 |
| 20260905060543 | 55 | 315 | 6.0 | 10.0 | 0.00 | 0.05 | 0.01 | 61 | 1015.2 |
| 20260905060058 | 55 | 321 | 6.0 | 11.0 | 0.00 | 0.05 | 0.01 | 63 | 1015.2 |
| 20260905055544 | 54 | 319 | 8.0 | 11.0 | 0.00 | 0.06 | 0.01 | 64 | 1015.1 |
| 20260905055043 | 54 | 321 | 8.0 | 11.0 | 0.00 | 0.06 | 0.01 | 66 | 1015.2 |
| 20260905054552 | 54 | 318 | 6.0 | 11.0 | 0.00 | 0.06 | 0.01 | 67 | 1015.3 |
| 20260905054047 | 53 | 298 | 7.0 | 10.0 | 0.00 | 0.06 | 0.01 | 69 | 1015.3 |
| 20260905053545 | 53 | 315 | 7.0 | 9.0 | 0.00 | 0.06 | 0.01 | 72 | 1015.4 |
| 20260905053103 | 53 | 316 | 7.0 | 9.0 | 0.00 | 0.06 | 0.01 | 79 | 1015.4 |
| 20260905052545 | 53 | 313 | 5.0 | 9.0 | 0.00 | 0.06 | 0.01 | 80 | 1015.4 |
| 20260905052044 | 53 | 305 | 6.0 | 10.0 | 0.00 | 0.06 | 0.01 | 79 | 1015.5 |
| 20260905051558 | 54 | 319 | 6.0 | 10.0 | 0.00 | 0.06 | 0.01 | 78 | 1015.5 |
| 20260905051043 | 54 | 309 | 7.0 | 10.0 | 0.00 | 0.06 | 0.01 | 78 | 1015.5 |
| 20260905050543 | 54 | 308 | 7.0 | 10.0 | 0.00 | 0.06 | 0.01 | 75 | 1015.6 |
| 20260905050059 | 55 | 310 | 6.0 | 10.0 | 0.00 | 0.06 | 0.01 | 71 | 1015.6 |
| 20260905045544 | 55 | 319 | 7.0 | 10.0 | 0.00 | 0.06 | 0.01 | 68 | 1015.5 |
| 20260905045040 | 55 | 302 | 7.0 | 9.0 | 0.00 | 0.06 | 0.01 | 68 | 1015.5 |
| 20260905044603 | 54 | 319 | 6.0 | 9.0 | 0.00 | 0.06 | 0.01 | 68 | 1015.5 |
| 20260905044043 | 54 | 303 | 6.0 | 9.0 | 0.00 | 0.06 | 0.01 | 70 | 1015.6 |
| 20260905043543 | 54 | 319 | 5.0 | 9.0 | 0.00 | 0.06 | 0.01 | 72 | 1015.6 |
| 20260905043051 | 54 | 315 | 5.0 | 9.0 | 0.00 | 0.06 | 0.01 | 75 | 1015.4 |
| 20260905042543 | 54 | 316 | 4.0 | 9.0 | 0.00 | 0.06 | 0.01 | 77 | 1015.6 |
| 20260905042044 | 55 | 317 | 5.0 | 9.0 | 0.00 | 0.06 | 0.01 | 78 | 1015.4 |
| 20260905041558 | 55 | 319 | 5.0 | 9.0 | 0.00 | 0.06 | 0.01 | 76 | 1015.5 |
| 20260905041044 | 55 | 300 | 6.0 | 10.0 | 0.00 | 0.06 | 0.01 | 72 | 1015.4 |
| 20260905040546 | 55 | 313 | 8.0 | 10.0 | 0.00 | 0.06 | 0.01 | 71 | 1015.4 |
| 20260905040056 | 54 | 314 | 7.0 | 9.0 | 0.00 | 0.06 | 0.01 | 73 | 1015.4 |
| 20260905035543 | 54 | 314 | 6.0 | 9.0 | 0.00 | 0.06 | 0.01 | 76 | 1015.4 |
| 20260905035044 | 54 | 319 | 5.0 | 8.0 | 0.00 | 0.06 | 0.01 | 77 | 1015.4 |
| 20260905034607 | 54 | 317 | 5.0 | 8.0 | 0.00 | 0.06 | 0.01 | 79 | 1015.4 |
| 20260905034044 | 55 | 311 | 4.0 | 8.0 | 0.00 | 0.06 | 0.01 | 79 | 1015.3 |
| 20260905033543 | 55 | 313 | 4.0 | 8.0 | 0.00 | 0.06 | 0.01 | 79 | 1015.2 |
| 20260905033103 | 55 | 324 | 4.0 | 8.0 | 0.00 | 0.06 | 0.01 | 78 | 1015.2 |
| 20260905032544 | 55 | 313 | 4.0 | 7.0 | 0.00 | 0.06 | 0.01 | 77 | 1015.1 |
| 20260905032043 | 56 | 310 | 3.0 | 5.0 | 0.00 | 0.06 | 0.01 | 76 | 1015.1 |
| 20260905031554 | 56 | 320 | 3.0 | 5.0 | 0.00 | 0.06 | 0.01 | 75 | 1015.1 |
| 20260905031044 | 56 | 307 | 2.0 | 5.0 | 0.00 | 0.06 | 0.01 | 74 | 1015.1 |
| 20260905030543 | 56 | 311 | 2.0 | 7.0 | 0.00 | 0.06 | 0.01 | 72 | 1015.0 |
| 20260905025543 | 57 | 311 | 3.0 | 8.0 | 0.00 | 0.06 | 0.01 | 70 | 1015.0 |
| 20260905025043 | 57 | 303 | 4.0 | 7.0 | 0.00 | 0.06 | 0.01 | 70 | 1015.1 |
| 20260905024555 | 57 | 309 | 4.0 | 8.0 | 0.00 | 0.06 | 0.01 | 71 | 1015.0 |
| 20260905024118 | 57 | 309 | 3.0 | 8.0 | 0.00 | 0.06 | 0.01 | 72 | 1015.0 |
| 20260905023543 | 58 | 313 | 3.0 | 8.0 | 0.00 | 0.06 | 0.01 | 71 | 1015.0 |
| 20260905023101 | 58 | 309 | 5.0 | 8.0 | 0.00 | 0.06 | 0.01 | 69 | 1015.0 |
| 20260905022543 | 58 | 315 | 3.0 | 8.0 | 0.00 | 0.06 | 0.01 | 68 | 1015.0 |
| 20260905022043 | 59 | 307 | 2.0 | 7.0 | 0.00 | 0.06 | 0.01 | 67 | 1015.0 |
| 20260905021557 | 59 | 299 | 2.0 | 9.0 | 0.00 | 0.06 | 0.01 | 65 | 1014.9 |
| 20260905021044 | 59 | 293 | 3.0 | 9.0 | 0.00 | 0.06 | 0.01 | 64 | 1014.9 |
| 20260905020543 | 60 | 324 | 4.0 | 8.0 | 0.00 | 0.06 | 0.01 | 63 | 1014.8 |
| 20260905020105 | 60 | 331 | 5.0 | 8.0 | 0.00 | 0.06 | 0.01 | 62 | 1014.8 |
| 20260905015543 | 60 | 309 | 3.0 | 7.0 | 0.00 | 0.06 | 0.01 | 61 | 1014.9 |
| 20260905015046 | 61 | 302 | 4.0 | 7.0 | 0.00 | 0.06 | 0.01 | 60 | 1014.7 |
| 20260905014604 | 61 | 296 | 3.0 | 8.0 | 0.00 | 0.06 | 0.01 | 59 | 1014.8 |
| 20260905014047 | 61 | 302 | 4.0 | 10.0 | 0.00 | 0.06 | 0.01 | 58 | 1014.8 |
| 20260905013544 | 61 | 306 | 5.0 | 10.0 | 0.00 | 0.06 | 0.01 | 58 | 1014.7 |
| 20260905013059 | 62 | 300 | 6.0 | 10.0 | 0.00 | 0.06 | 0.01 | 57 | 1014.8 |
| 20260905012544 | 62 | 296 | 6.0 | 10.0 | 0.00 | 0.06 | 0.01 | 56 | 1014.8 |
| 20260905012044 | 62 | 317 | 5.0 | 9.0 | 0.00 | 0.06 | 0.01 | 55 | 1014.9 |
| 20260905011559 | 63 | 297 | 4.0 | 8.0 | 0.00 | 0.06 | 0.01 | 53 | 1014.8 |
| 20260905011043 | 63 | 300 | 5.0 | 8.0 | 0.00 | 0.06 | 0.01 | 53 | 1014.9 |
| 20260905010544 | 63 | 300 | 5.0 | 8.0 | 0.00 | 0.06 | 0.01 | 52 | 1014.9 |
| 20260905010100 | 63 | 301 | 4.0 | 8.0 | 0.00 | 0.06 | 0.01 | 53 | 1014.9 |
| 20260905005544 | 63 | 319 | 4.0 | 9.0 | 0.00 | 0.06 | 0.01 | 52 | 1014.8 |
| 20260905005044 | 63 | 308 | 5.0 | 9.0 | 0.00 | 0.06 | 0.01 | 51 | 1014.9 |
| 20260905004610 | 64 | 302 | 4.0 | 8.0 | 0.00 | 0.06 | 0.01 | 52 | 1014.8 |
| 20260905004040 | 64 | 304 | 4.0 | 8.0 | 0.00 | 0.06 | 0.01 | 53 | 1014.8 |
| 20260905003544 | 64 | 306 | 4.0 | 8.0 | 0.00 | 0.06 | 0.01 | 53 | 1014.9 |
| 20260905003051 | 64 | 304 | 4.0 | 8.0 | 0.00 | 0.06 | 0.01 | 52 | 1015.0 |
| 20260905002543 | 65 | 304 | 4.0 | 8.0 | 0.00 | 0.06 | 0.01 | 53 | 1014.9 |
| 20260905002046 | 65 | 304 | 4.0 | 8.0 | 0.00 | 0.06 | 0.01 | 53 | 1014.9 |
| 20260905001608 | 65 | 295 | 3.0 | 8.0 | 0.00 | 0.06 | 0.01 | 54 | 1014.9 |
| 20260905001046 | 65 | 307 | 3.0 | 8.0 | 0.00 | 0.06 | 0.01 | 54 | 1014.8 |
| 20260905000545 | 65 | 298 | 2.0 | 8.0 | 0.00 | 0.06 | 0.01 | 53 | 1014.9 |
| 20260905000109 | 65 | 307 | 3.0 | 9.0 | 0.00 | 0.06 | 0.01 | 53 | 1014.9 |
| 20260904235544 | 65 | 304 | 4.0 | 9.0 | 0.00 | 0.06 | 0.01 | 53 | 1014.9 |
| 20260904235043 | 65 | 301 | 3.0 | 9.0 | 0.00 | 0.06 | 0.01 | 52 | 1014.8 |
| 20260904234607 | 65 | 311 | 5.0 | 9.0 | 0.00 | 0.06 | 0.01 | 53 | 1014.9 |
| 20260904234048 | 65 | 298 | 5.0 | 10.0 | 0.00 | 0.06 | 0.01 | 53 | 1014.9 |
| 20260904233546 | 65 | 315 | 7.0 | 10.0 | 0.00 | 0.06 | 0.01 | 53 | 1014.9 |
| 20260904233106 | 66 | 308 | 5.0 | 9.0 | 0.00 | 0.06 | 0.01 | 53 | 1014.9 |
| 20260904232544 | 66 | 297 | 4.0 | 9.0 | 0.00 | 0.06 | 0.01 | 52 | 1014.9 |
| 20260904232046 | 66 | 315 | 4.0 | 9.0 | 0.00 | 0.06 | 0.01 | 51 | 1015.0 |
| 20260904231607 | 67 | 310 | 3.0 | 9.0 | 0.00 | 0.06 | 0.01 | 50 | 1014.9 |
| 20260904231043 | 67 | 312 | 3.0 | 8.0 | 0.00 | 0.06 | 0.01 | 51 | 1014.9 |